Tracking 27401 objects as of 3-Jun-2023
HD Live streaming from Space Station
objects crossing your sky now

RADUGA 25

Track RADUGA 25 now!
RADUGA 25 is classified as:


NORAD ID: 20499
Int'l Code: 1990-016A
Perigee: 35,782.1 km
Apogee: 35,837.0 km
Inclination: 13.5 °
Period: 1,436.9 minutes
Semi major axis: 42180 km
RCS: 7.9432 m2 (large)
Launch date: February 15, 1990
Source: Commonwealth of Independent States (former USSR) (CIS)
Launch site: TYURATAM MISSILE AND SPACE COMPLEX (TTMTR)
Your satellite tracking list
Your tracking list is empty




NASA's NSSDC Master Catalog

Two Line Element Set (TLE):
1 20499U 90016A   23154.60971212  .00000114  00000-0  00000-0 0  9999
2 20499  13.4778 342.7415 0006511 143.5258 187.2260  1.00215393121771
Source of the keplerian elements: AFSPC